| time (UTC) | temp C | wind direction | speed KPH | gust KPH | rain 1hr cm | rain 24hr cm | rain mn cm | humidity % | barometer mb |
| 20260509054523 | 22 | 59 | 6.4 | 8.0 | 0.00 | 0.00 | 0.00 | 27 | 1006.8 |
| 20260509053022 | 22 | 71 | 6.4 | 14.5 | 0.00 | 0.00 | 0.00 | 25 | 1006.8 |
| 20260509051524 | 23 | 116 | 9.7 | 19.3 | 0.00 | 0.00 | 0.00 | 21 | 1006.5 |
| 20260509050022 | 25 | 94 | 6.4 | 14.5 | 0.00 | 0.00 | 0.00 | 16 | 1006.5 |
| 20260509044520 | 25 | 211 | 3.2 | 4.8 | 0.00 | 0.00 | 0.00 | 15 | 1006.2 |
| 20260509043020 | 26 | 212 | 1.6 | 3.2 | 0.00 | 0.00 | 0.00 | 16 | 1006.3 |
| 20260509041520 | 26 | 212 | 0.0 | 4.8 | 0.00 | 0.00 | 0.00 | 15 | 1006.1 |
| 20260509040019 | 26 | 210 | 3.2 | 4.8 | 0.00 | 0.00 | 0.00 | 15 | 1006.0 |
| 20260509034536 | 26 | 207 | 4.8 | 9.7 | 0.00 | 0.00 | 0.00 | 15 | 1005.8 |
| 20260509033018 | 27 | 205 | 3.2 | 6.4 | 0.00 | 0.00 | 0.00 | 14 | 1005.7 |
| 20260509031517 | 27 | 206 | 3.2 | 6.4 | 0.00 | 0.00 | 0.00 | 13 | 1005.5 |
| 20260509030020 | 28 | 182 | 3.2 | 6.4 | 0.00 | 0.00 | 0.00 | 12 | 1005.3 |
| 20260509024516 | 28 | 173 | 6.4 | 11.3 | 0.00 | 0.00 | 0.00 | 12 | 1005.2 |
| 20260509023015 | 28 | 169 | 6.4 | 9.7 | 0.00 | 0.00 | 0.00 | 12 | 1004.9 |
| 20260509021517 | 29 | 259 | 1.6 | 4.8 | 0.00 | 0.00 | 0.00 | 10 | 1004.7 |
| 20260509020014 | 30 | 259 | 1.6 | 12.9 | 0.00 | 0.00 | 0.00 | 10 | 1004.6 |
| 20260509014515 | 30 | 296 | 9.7 | 14.5 | 0.00 | 0.00 | 0.00 | 9 | 1004.5 |
| 20260509013013 | 30 | 317 | 9.7 | 19.3 | 0.00 | 0.00 | 0.00 | 9 | 1004.3 |
| 20260509011513 | 30 | 360 | 6.4 | 17.7 | 0.00 | 0.00 | 0.00 | 9 | 1004.2 |
| 20260509010012 | 31 | 36 | 3.2 | 9.7 | 0.00 | 0.00 | 0.00 | 9 | 1004.2 |
| 20260509004510 | 30 | 341 | 12.9 | 24.1 | 0.00 | 0.00 | 0.00 | 9 | 1004.3 |
| 20260509003009 | 30 | 30 | 8.0 | 24.1 | 0.00 | 0.00 | 0.00 | 9 | 1004.4 |
| 20260509001508 | 30 | 12 | 11.3 | 19.3 | 0.00 | 0.00 | 0.00 | 9 | 1004.3 |
| 20260509000107 | 30 | 291 | 9.7 | 30.6 | 0.00 | 0.00 | 0.00 | 9 | 1004.5 |
| 20260508234506 | 30 | 311 | 16.1 | 24.1 | 0.00 | 0.00 | 0.00 | 9 | 1004.4 |
| 20260508233004 | 30 | 294 | 17.7 | 29.0 | 0.00 | 0.00 | 0.00 | 9 | 1004.6 |
| 20260508231504 | 30 | 286 | 17.7 | 25.7 | 0.00 | 0.00 | 0.00 | 9 | 1004.7 |
| 20260508230100 | 30 | 312 | 6.4 | 25.7 | 0.00 | 0.00 | 0.00 | 9 | 1004.9 |
| 20260508224559 | 30 | 312 | 11.3 | 22.5 | 0.00 | 0.00 | 0.00 | 9 | 1004.8 |
| 20260508223057 | 30 | 291 | 3.2 | 22.5 | 0.00 | 0.00 | 0.00 | 8 | 1004.9 |
| 20260508221555 | 30 | 342 | 17.7 | 30.6 | 0.00 | 0.00 | 0.00 | 8 | 1005.0 |
| 20260508220052 | 30 | 5 | 6.4 | 24.1 | 0.00 | 0.00 | 0.00 | 9 | 1005.1 |
| 20260508214602 | 29 | 216 | 1.6 | 14.5 | 0.00 | 0.00 | 0.00 | 11 | 1005.2 |
| 20260508213046 | 29 | 150 | 17.7 | 27.4 | 0.00 | 0.00 | 0.00 | 11 | 1005.4 |
| 20260508211542 | 29 | 334 | 3.2 | 17.7 | 0.00 | 0.00 | 0.00 | 12 | 1005.5 |
| 20260508210041 | 29 | 347 | 4.8 | 22.5 | 0.00 | 0.00 | 0.00 | 13 | 1005.7 |
| 20260508204538 | 28 | 88 | 3.2 | 9.7 | 0.00 | 0.00 | 0.00 | 11 | 1006.0 |
| 20260508203036 | 28 | 84 | 16.1 | 20.9 | 0.00 | 0.00 | 0.00 | 11 | 1006.1 |
| 20260508201533 | 29 | 136 | 9.7 | 17.7 | 0.00 | 0.00 | 0.00 | 12 | 1006.3 |
| 20260508200035 | 28 | 36 | 8.0 | 17.7 | 0.00 | 0.00 | 0.00 | 13 | 1006.7 |
| 20260508194528 | 28 | 80 | 6.4 | 11.3 | 0.00 | 0.00 | 0.00 | 15 | 1006.7 |
| 20260508193028 | 27 | 282 | 4.8 | 19.3 | 0.00 | 0.00 | 0.00 | 17 | 1006.7 |
| 20260508191524 | 27 | 259 | 9.7 | 14.5 | 0.00 | 0.00 | 0.00 | 17 | 1007.2 |
| 20260508190039 | 27 | 169 | 4.8 | 9.7 | 0.00 | 0.00 | 0.00 | 19 | 1007.3 |
| 20260508184529 | 27 | 71 | 9.7 | 17.7 | 0.00 | 0.00 | 0.00 | 19 | 1007.4 |
| 20260508183028 | 27 | 132 | 1.6 | 11.3 | 0.00 | 0.00 | 0.00 | 17 | 1007.6 |
| 20260508181518 | 26 | 275 | 4.8 | 16.1 | 0.00 | 0.00 | 0.00 | 18 | 1007.7 |
| 20260508180011 | 26 | 257 | 3.2 | 11.3 | 0.00 | 0.00 | 0.00 | 17 | 1008.0 |
| 20260508174507 | 26 | 288 | 11.3 | 19.3 | 0.00 | 0.00 | 0.00 | 16 | 1008.3 |
| 20260508173003 | 25 | 292 | 6.4 | 16.1 | 0.00 | 0.00 | 0.00 | 16 | 1008.3 |
| 20260508171606 | 25 | 309 | 4.8 | 17.7 | 0.00 | 0.00 | 0.00 | 18 | 1008.3 |
| 20260508170105 | 24 | 288 | 14.5 | 20.9 | 0.00 | 0.00 | 0.00 | 19 | 1008.5 |
| 20260508164556 | 23 | 318 | 12.9 | 24.1 | 0.00 | 0.00 | 0.00 | 20 | 1008.5 |
| 20260508163046 | 22 | 303 | 19.3 | 25.7 | 0.00 | 0.00 | 0.00 | 21 | 1008.7 |
| 20260508161542 | 22 | 306 | 16.1 | 24.1 | 0.00 | 0.00 | 0.00 | 21 | 1008.9 |
| 20260508160039 | 22 | 306 | 12.9 | 25.7 | 0.00 | 0.00 | 0.00 | 21 | 1009.1 |
| 20260508154536 | 22 | 315 | 16.1 | 25.7 | 0.00 | 0.00 | 0.00 | 24 | 1009.1 |
| 20260508153035 | 21 | 302 | 14.5 | 20.9 | 0.00 | 0.00 | 0.00 | 26 | 1009.2 |
| 20260508151524 | 21 | 317 | 14.5 | 20.9 | 0.00 | 0.00 | 0.00 | 27 | 1009.1 |
| 20260508150019 | 21 | 315 | 14.5 | 27.4 | 0.00 | 0.00 | 0.00 | 28 | 1009.2 |
| 20260508144524 | 20 | 296 | 17.7 | 30.6 | 0.00 | 0.00 | 0.00 | 28 | 1009.3 |
| 20260508143013 | 20 | 304 | 17.7 | 24.1 | 0.00 | 0.00 | 0.00 | 28 | 1009.3 |
| 20260508141510 | 20 | 314 | 16.1 | 25.7 | 0.00 | 0.00 | 0.00 | 28 | 1009.3 |
| 20260508140001 | 19 | 305 | 14.5 | 25.7 | 0.00 | 0.00 | 0.00 | 29 | 1009.2 |
| 20260508134558 | 18 | 308 | 12.9 | 20.9 | 0.00 | 0.00 | 0.00 | 34 | 1009.1 |
| 20260508133053 | 18 | 329 | 3.2 | 9.7 | 0.00 | 0.00 | 0.00 | 40 | 1009.0 |
| 20260508131600 | 17 | 38 | 3.2 | 6.4 | 0.00 | 0.00 | 0.00 | 40 | 1009.0 |
| 20260508130044 | 17 | 30 | 1.6 | 3.2 | 0.00 | 0.00 | 0.00 | 41 | 1008.7 |
| 20260508124541 | 17 | 31 | 1.6 | 4.8 | 0.00 | 0.00 | 0.00 | 41 | 1008.6 |
| 20260508123038 | 17 | 330 | 1.6 | 4.8 | 0.00 | 0.00 | 0.00 | 39 | 1008.4 |
| 20260508121536 | 17 | 284 | 1.6 | 4.8 | 0.00 | 0.00 | 0.00 | 40 | 1008.3 |
| 20260508120043 | 17 | 284 | 1.6 | 4.8 | 0.00 | 0.00 | 0.00 | 39 | 1008.2 |
| 20260508114550 | 17 | 288 | 3.2 | 8.0 | 0.00 | 0.00 | 0.00 | 39 | 1008.0 |
| 20260508113033 | 17 | 284 | 3.2 | 12.9 | 0.00 | 0.00 | 0.00 | 39 | 1008.2 |
| 20260508111531 | 17 | 320 | 3.2 | 6.4 | 0.00 | 0.00 | 0.00 | 37 | 1008.3 |
| 20260508110032 | 17 | 320 | 11.3 | 17.7 | 0.00 | 0.00 | 0.00 | 37 | 1008.4 |
| 20260508104533 | 18 | 291 | 17.7 | 24.1 | 0.00 | 0.00 | 0.00 | 36 | 1008.3 |
| 20260508103034 | 18 | 302 | 17.7 | 24.1 | 0.00 | 0.00 | 0.00 | 34 | 1008.3 |
| 20260508101527 | 17 | 325 | 12.9 | 29.0 | 0.00 | 0.00 | 0.00 | 33 | 1008.1 |
| 20260508100022 | 18 | 304 | 19.3 | 30.6 | 0.00 | 0.00 | 0.00 | 36 | 1008.2 |
| 20260508094522 | 18 | 304 | 6.4 | 12.9 | 0.00 | 0.00 | 0.00 | 42 | 1007.9 |
| 20260508093024 | 18 | 85 | 0.0 | 3.2 | 0.00 | 0.00 | 0.00 | 41 | 1007.6 |
| 20260508091515 | 19 | 84 | 3.2 | 6.4 | 0.00 | 0.00 | 0.00 | 40 | 1007.9 |
| 20260508090011 | 19 | 84 | 4.8 | 9.7 | 0.00 | 0.00 | 0.00 | 40 | 1007.9 |
| 20260508084510 | 20 | 84 | 4.8 | 8.0 | 0.00 | 0.00 | 0.00 | 39 | 1008.2 |
| 20260508083008 | 20 | 80 | 6.4 | 8.0 | 0.00 | 0.00 | 0.00 | 39 | 1008.3 |
| 20260508081510 | 20 | 80 | 4.8 | 8.0 | 0.00 | 0.00 | 0.00 | 39 | 1008.4 |
| 20260508080107 | 20 | 200 | 3.2 | 6.4 | 0.00 | 0.00 | 0.00 | 40 | 1008.4 |
| 20260508074503 | 20 | 200 | 1.6 | 3.2 | 0.00 | 0.00 | 0.00 | 39 | 1008.6 |
| 20260508073004 | 20 | 200 | 0.0 | 6.4 | 0.00 | 0.00 | 0.00 | 38 | 1008.9 |
| 20260508071603 | 20 | 204 | 6.4 | 11.3 | 0.00 | 0.00 | 0.00 | 38 | 1009.0 |
| 20260508070056 | 20 | 158 | 4.8 | 9.7 | 0.00 | 0.00 | 0.00 | 36 | 1009.2 |
| 20260508064553 | 21 | 145 | 6.4 | 12.9 | 0.00 | 0.00 | 0.00 | 36 | 1009.5 |
| 20260508063102 | 21 | 161 | 9.7 | 14.5 | 0.00 | 0.00 | 0.00 | 35 | 1009.5 |
| 20260508061549 | 21 | 142 | 6.4 | 11.3 | 0.00 | 0.00 | 0.00 | 34 | 1009.3 |
| 20260508060047 | 21 | 120 | 6.4 | 9.7 | 0.00 | 0.00 | 0.00 | 33 | 1009.5 |